Ketchikan, AK

10:42 PM AKST on December 15, 2018 (GMT -0900)
Ketchikan International

Weather History for PAKT - September, 2018

Change the Weather History Date:

Monday, September 10, 2018

  Actual Average Record
Temperature  
Mean Temperature 55 °F -  
Max Temperature 62 °F 60 °F 75 °F (1950)
Min Temperature 50 °F 47 °F 36 °F (1970)
Degree Days  
Heating Degree Days 10    
Growing Degree Days 5 (Base 50)    
Moisture  
Dew Point 50 °F    
Average Humidity 83    
Maximum Humidity 93    
Minimum Humidity 68    
Precipitation  
Precipitation 0.00 in - - ()
Sea Level Pressure  
Sea Level Pressure 29.71 in    
Wind  
Wind Speed 7 mph (NW)    
Max Wind Speed 13 mph    
Max Gust Speed -    
Visibility 10 miles    
Events      
Averages and records for this station are not official NWS values.
T = Trace of Precipitation, MM = Missing Value Source: NWS Daily Summary

Daily Weather History Graph

Daily Weather History Graph

Search for Another Location

Airport or City:

Astronomy

Sep. 10, 2018 Rise Set
Actual Time 6:09 AM AKDT 7:16 PM AKDT
Civil Twilight 5:32 AM AKDT 7:53 PM AKDT
Nautical Twilight 4:46 AM AKDT 8:39 PM AKDT
Astronomical Twilight 3:56 AM AKDT 9:29 PM AKDT
Moon 7:12 AM AKDT (9/10) 8:07 PM AKDT (9/10)
Length of Visible Light 14h 21m
Length of Day
13h 06m
New Moon, 2% of the Moon is Illuminated
Sep 10
New Moon
Sep 16
First Quarter
Sep 24
Full
Oct 2
Last Quarter
Oct 8
New

Hourly Weather History & Observations

Time (AKDT) Temp. Dew Point Humidity Pressure Visibility Wind Dir Wind Speed Gust Speed Precip Events Conditions
12:53 AM 52.0 °F 48.9 °F 89% 29.65 in 10.0 mi NNW 5.8 mph - N/A   Clear
1:53 AM 50.0 °F 46.9 °F 89% 29.66 in 10.0 mi West 3.5 mph - N/A   Clear
2:53 AM 51.1 °F 48.0 °F 89% 29.65 in 10.0 mi WNW 5.8 mph - N/A   Scattered Clouds
3:53 AM 50.0 °F 48.0 °F 93% 29.65 in 10.0 mi NW 6.9 mph - N/A   Clear
4:53 AM 50.0 °F 48.0 °F 93% 29.65 in 10.0 mi NW 8.1 mph - N/A   Partly Cloudy
5:53 AM 51.1 °F 48.0 °F 89% 29.65 in 10.0 mi NW 8.1 mph - N/A   Overcast
6:12 AM 53.1 °F 48.0 °F 83% 29.64 in 10.0 mi NNW 10.4 mph - N/A   Overcast
6:53 AM 52.0 °F 48.9 °F 89% 29.66 in 10.0 mi NNW 10.4 mph - N/A   Overcast
7:53 AM 53.1 °F 48.9 °F 86% 29.67 in 10.0 mi NNW 10.4 mph - N/A   Overcast
8:53 AM 54.0 °F 48.9 °F 83% 29.69 in 10.0 mi NW 4.6 mph - N/A   Overcast
9:53 AM 55.9 °F 48.9 °F 77% 29.68 in 10.0 mi NNW 12.7 mph - 0.00 in   Overcast
10:53 AM 57.2 °F 51.8 °F 82% 29.69 in 10.0 mi NNW 12.7 mph - N/A   Overcast
11:53 AM 59.0 °F 51.8 °F 77% 29.70 in 10.0 mi NNW 12.7 mph - N/A   Mostly Cloudy
12:53 PM 60.8 °F 50.0 °F 68% 29.70 in 10.0 mi NNW 10.4 mph - N/A   Mostly Cloudy
1:53 PM 60.8 °F 51.8 °F 72% 29.72 in 10.0 mi NW 9.2 mph - N/A   Mostly Cloudy
2:53 PM 60.8 °F 50.0 °F 68% 29.73 in 10.0 mi NW 9.2 mph - N/A   Overcast
3:53 PM 59.0 °F 51.8 °F 77% 29.73 in 10.0 mi NW 9.2 mph - N/A   Overcast
4:53 PM 60.8 °F 50.0 °F 68% 29.75 in 10.0 mi Variable 3.5 mph - N/A   Overcast
5:53 PM 59.0 °F 51.8 °F 77% 29.76 in 10.0 mi South 3.5 mph - N/A   Overcast
6:53 PM 57.9 °F 51.1 °F 78% 29.77 in 10.0 mi South 3.5 mph - N/A   Overcast
7:53 PM 55.0 °F 52.0 °F 89% 29.78 in 10.0 mi Calm Calm - N/A   Overcast
8:53 PM 51.1 °F 48.9 °F 92% 29.80 in 10.0 mi Calm Calm - N/A   Partly Cloudy
9:53 PM 54.0 °F 50.0 °F 86% 29.80 in 10.0 mi NW 4.6 mph - N/A   Clear
10:53 PM 52.0 °F 48.9 °F 89% 29.81 in 10.0 mi Calm Calm - N/A   Partly Cloudy
11:53 PM 50.0 °F 48.0 °F 93% 29.83 in 10.0 mi Calm Calm - N/A   Overcast